• In India
  • List of Countries
  • For 7 days
  • Water Temperature
  • Satellite Maps
  • Weather Map
  • Weather Widgets
  • user-avatar
    Login

    Hourly Weather Wlora

    Today, 23 September, Sunday

    Time Temperature Precipitation Wind Pressure Humidity
    00:00 +24°C° 0 mm 1 mps 764 mmHg 74%
    01:00 +24°C° 0 mm 1 mps 763 mmHg 74%
    02:00 +24°C° 0 mm 1 mps 763 mmHg 74%
    03:00 +24°C° 0 mm 1 mps 763 mmHg 73%
    04:00 +23°C° 0 mm 2 mps 763 mmHg 72%
    05:00 +24°C° 0 mm 2 mps 764 mmHg 68%
    06:00 +25°C° 0 mm 2 mps 764 mmHg 64%
    07:00 +26°C° 0 mm 2 mps 764 mmHg 61%
    08:00 +28°C° 0 mm 2 mps 764 mmHg 55%
    09:00 +30°C° 0 mm 2 mps 764 mmHg 49%
    10:00 +32°C° 0 mm 2 mps 764 mmHg 43%
    11:00 +32°C° 0 mm 2 mps 764 mmHg 41%
    12:00 +34°C° 0 mm 3 mps 764 mmHg 39%
    13:00 +35°C° 0 mm 3 mps 764 mmHg 37%
    14:00 +34°C° 0 mm 3 mps 763 mmHg 40%
    15:00 +33°C° 0 mm 3 mps 763 mmHg 42%
    16:00 +32°C° 0 mm 2 mps 763 mmHg 44%
    17:00 +30°C° 0 mm 2 mps 763 mmHg 51%
    18:00 +28°C° 0 mm 2 mps 763 mmHg 57%
    19:00 +26°C° 0 mm 1 mps 763 mmHg 63%
    20:00 +26°C° 0 mm 2 mps 763 mmHg 63%
    21:00 +26°C° 0 mm 2 mps 763 mmHg 63%
    22:00 +26°C° 0 mm 2 mps 763 mmHg 63%
    23:00 +25°C° 0 mm 2 mps 763 mmHg 64%

    Tomorrow, 24 September, Monday

    Time Temperature Precipitation Wind Pressure Humidity
    00:00 +25°C° 0 mm 2 mps 763 mmHg 65%
    01:00 +24°C° 0 mm 3 mps 762 mmHg 66%
    02:00 +24°C° 0 mm 3 mps 762 mmHg 69%
    03:00 +24°C° 0 mm 3 mps 762 mmHg 72%
    04:00 +22°C° 0 mm 4 mps 762 mmHg 74%
    05:00 +23°C° 0 mm 4 mps 762 mmHg 72%
    06:00 +25°C° 0 mm 4 mps 762 mmHg 69%
    07:00 +25°C° 0 mm 5 mps 761 mmHg 67%
    08:00 +27°C° 0 mm 5 mps 761 mmHg 60%
    09:00 +29°C° 0 mm 5 mps 761 mmHg 52%
    10:00 +32°C° 0 mm 5 mps 761 mmHg 45%
    11:00 +32°C° 0 mm 5 mps 761 mmHg 43%
    12:00 +33°C° 0 mm 5 mps 760 mmHg 41%
    13:00 +33°C° 0 mm 5 mps 760 mmHg 40%
    14:00 +33°C° 0 mm 4 mps 760 mmHg 44%
    15:00 +32°C° 0 mm 4 mps 759 mmHg 47%
    16:00 +32°C° 0 mm 4 mps 759 mmHg 51%
    17:00 +29°C° 0 mm 3 mps 760 mmHg 61%
    18:00 +27°C° 0 mm 2 mps 760 mmHg 70%
    19:00 +26°C° 0 mm 2 mps 761 mmHg 79%
    20:00 +25°C° 0 mm 1 mps 761 mmHg 81%
    21:00 +25°C° 0 mm 1 mps 762 mmHg 83%
    22:00 +25°C° 0 mm 1 mps 762 mmHg 85%
    23:00 +24°C° 0 mm 2 mps 762 mmHg 82%

    Day after tomorrow, 25 September, Tuesday

    Time Temperature Precipitation Wind Pressure Humidity
    00:00 +24°C° 0 mm 3 mps 763 mmHg 79%
    01:00 +22°C° 0 mm 4 mps 763 mmHg 75%
    02:00 +22°C° 0 mm 5 mps 763 mmHg 71%
    03:00 +21°C° 0 mm 6 mps 763 mmHg 66%
    04:00 +21°C° 0 mm 7 mps 763 mmHg 61%
    05:00 +21°C° 0 mm 7 mps 764 mmHg 56%
    06:00 +21°C° 0 mm 7 mps 764 mmHg 51%
    07:00 +21°C° 0 mm 8 mps 764 mmHg 45%
    08:00 +23°C° 0 mm 8 mps 764 mmHg 41%
    09:00 +26°C° 0 mm 8 mps 765 mmHg 37%
    10:00 +28°C° 0 mm 8 mps 765 mmHg 32%
    11:00 +29°C° 0 mm 8 mps 765 mmHg 32%
    12:00 +31°C° 0 mm 8 mps 765 mmHg 31%
    13:00 +32°C° 0 mm 8 mps 765 mmHg 31%
    14:00 +32°C° 0 mm 9 mps 765 mmHg 30%
    15:00 +31°C° 0 mm 9 mps 765 mmHg 30%
    16:00 +31°C° 0 mm 10 mps 764 mmHg 30%
    17:00 +28°C° 0 mm 10 mps 765 mmHg 32%
    18:00 +26°C° 0 mm 9 mps 765 mmHg 34%
    19:00 +23°C° 0 mm 9 mps 766 mmHg 35%
    20:00 +22°C° 0 mm 8 mps 766 mmHg 33%
    21:00 +21°C° 0 mm 8 mps 767 mmHg 31%
    22:00 +20°C° 0 mm 7 mps 767 mmHg 29%
    23:00 +18°C° 0 mm 7 mps 767 mmHg 29%

    26 September, Wednesday

    Time Temperature Precipitation Wind Pressure Humidity
    00:00 +17°C° 0 mm 7 mps 768 mmHg 29%
    01:00 +16°C° 0 mm 7 mps 768 mmHg 29%
    02:00 +16°C° 0 mm 7 mps 768 mmHg 31%
    03:00 +15°C° 0 mm 7 mps 768 mmHg 32%
    04:00 +14°C° 0 mm 7 mps 768 mmHg 33%
    05:00 +15°C° 0 mm 7 mps 768 mmHg 33%
    06:00 +15°C° 0 mm 7 mps 769 mmHg 32%
    07:00 +15°C° 0 mm 7 mps 769 mmHg 32%
    08:00 +17°C° 0 mm 6 mps 769 mmHg 27%
    09:00 +21°C° 0 mm 6 mps 770 mmHg 22%
    10:00 +23°C° 0 mm 5 mps 770 mmHg 17%
    11:00 +25°C° 0 mm 5 mps 770 mmHg 16%
    12:00 +26°C° 0 mm 5 mps 770 mmHg 14%
    13:00 +27°C° 0 mm 5 mps 769 mmHg 13%
    14:00 +27°C° 0 mm 5 mps 769 mmHg 14%
    15:00 +26°C° 0 mm 5 mps 769 mmHg 15%
    16:00 +26°C° 0 mm 6 mps 769 mmHg 16%
    17:00 +23°C° 0 mm 6 mps 769 mmHg 18%
    18:00 +21°C° 0 mm 6 mps 770 mmHg 21%
    19:00 +19°C° 0 mm 6 mps 770 mmHg 23%
    20:00 +17°C° 0 mm 5 mps 770 mmHg 24%
    21:00 +16°C° 0 mm 5 mps 771 mmHg 25%
    22:00 +16°C° 0 mm 5 mps 771 mmHg 26%
    23:00 +15°C° 0 mm 5 mps 771 mmHg 26%

    27 September, Thursday

    Time Temperature Precipitation Wind Pressure Humidity
    00:00 +15°C° 0 mm 5 mps 771 mmHg 27%
    01:00 +14°C° 0 mm 4 mps 771 mmHg 27%
    02:00 +14°C° 0 mm 4 mps 770 mmHg 28%
    03:00 +14°C° 0 mm 4 mps 770 mmHg 30%
    04:00 +13°C° 0 mm 4 mps 770 mmHg 31%
    05:00 +14°C° 0 mm 4 mps 770 mmHg 31%
    06:00 +15°C° 0 mm 4 mps 770 mmHg 31%
    07:00 +17°C° 0 mm 3 mps 770 mmHg 32%
    08:00 +19°C° 0 mm 4 mps 770 mmHg 27%
    09:00 +22°C° 0 mm 4 mps 769 mmHg 21%
    10:00 +25°C° 0 mm 4 mps 769 mmHg 16%
    11:00 +26°C° 0 mm 4 mps 769 mmHg 16%
    12:00 +27°C° 0 mm 5 mps 768 mmHg 15%
    13:00 +28°C° 0 mm 6 mps 768 mmHg 14%
    14:00 +27°C° 0 mm 7 mps 767 mmHg 16%
    15:00 +27°C° 0 mm 7 mps 767 mmHg 19%
    16:00 +27°C° 0 mm 8 mps 766 mmHg 21%
    17:00 +24°C° 0 mm 8 mps 766 mmHg 28%
    18:00 +22°C° 0 mm 7 mps 766 mmHg 35%
    19:00 +18°C° 0 mm 7 mps 766 mmHg 43%
    20:00 +18°C° 0 mm 7 mps 766 mmHg 41%
    21:00 +18°C° 0 mm 7 mps 766 mmHg 40%
    22:00 +18°C° 0 mm 7 mps 765 mmHg 38%
    23:00 +19°C° 0 mm 6 mps 765 mmHg 34%

    28 September, Friday

    Time Temperature Precipitation Wind Pressure Humidity
    00:00 +19°C° 0 mm 6 mps 765 mmHg 30%
    01:00 +19°C° 0 mm 6 mps 764 mmHg 26%
    02:00 +17°C° 0 mm 6 mps 764 mmHg 24%
    03:00 +17°C° 0 mm 6 mps 764 mmHg 22%
    04:00 +17°C° 0 mm 5 mps 764 mmHg 20%
    05:00 +19°C° 0 mm 5 mps 764 mmHg 21%
    06:00 +20°C° 0 mm 5 mps 764 mmHg 22%
    07:00 +21°C° 0 mm 4 mps 764 mmHg 23%
    08:00 +23°C° 0 mm 4 mps 764 mmHg 22%
    09:00 +26°C° 0 mm 3 mps 763 mmHg 21%
    10:00 +28°C° 0 mm 3 mps 763 mmHg 19%
    11:00 +29°C° 0 mm 3 mps 763 mmHg 20%
    12:00 +30°C° 0 mm 3 mps 763 mmHg 22%
    13:00 +30°C° 0 mm 3 mps 762 mmHg 23%
    14:00 +30°C° 0 mm 3 mps 762 mmHg 25%
    15:00 +29°C° 0 mm 4 mps 762 mmHg 27%
    16:00 +29°C° 0 mm 4 mps 762 mmHg 29%
    17:00 +27°C° 0 mm 4 mps 762 mmHg 33%
    18:00 +25°C° 0 mm 3 mps 762 mmHg 38%
    19:00 +22°C° 0 mm 3 mps 762 mmHg 42%
    20:00 +22°C° 0 mm 3 mps 762 mmHg 42%
    21:00 +21°C° 0 mm 3 mps 762 mmHg 41%
    22:00 +21°C° 0 mm 3 mps 763 mmHg 41%
    23:00 +21°C° 0 mm 2 mps 763 mmHg 40%
    Show more